Location: Unspecified
(40.8819°N, 0.0000°E)
Time: 05:08:32
(UTC+00:00)

NOAA 19 - Visible Passes

Search period start: 16 April 2024 00:00
Search period end: 26 April 2024 00:00
Orbit: 838 x 860 km, 99.1° (Epoch: 15 April)

Date Brightness Start Highest point End Pass type
(mag) Time Alt. Az. Time Alt. Az. Time Alt. Az.
16 Apr 5.3 20:15:03 26° SE 20:18:07 60° ENE 20:23:30 10° N visible
16 Apr 7.4 21:57:01 14° WSW 21:59:07 18° W 22:02:43 10° NW visible
17 Apr 5.5 20:02:33 21° SE 20:05:55 47° ENE 20:11:07 10° N visible
17 Apr 7.1 21:44:31 18° SW 21:46:45 23° W 21:51:00 10° NW visible
18 Apr 5.9 19:50:03 17° SE 19:53:43 37° ENE 19:58:41 10° N visible
18 Apr 6.7 21:32:01 21° SW 21:34:22 29° W 21:39:06 10° NW visible
19 Apr 6.2 19:37:33 13° ESE 19:41:33 29° ENE 19:46:12 10° N visible
19 Apr 6.3 21:19:31 25° SSW 21:22:01 37° W 21:27:04 10° NNW visible
20 Apr 6.5 19:25:11 10° ESE 19:29:25 23° ENE 19:33:37 10° NNE visible
20 Apr 5.9 21:07:01 27° SSW 21:09:42 48° W 21:14:59 10° NNW visible
21 Apr 6.7 19:13:38 10° ESE 19:17:17 19° ENE 19:20:57 10° NNE visible
21 Apr 5.5 20:54:31 28° S 20:57:24 63° WSW 21:02:49 10° NNW visible
22 Apr 5.2 20:42:01 27° S 20:45:07 81° WSW 20:50:36 10° NNW visible
23 Apr 5.1 20:29:32 25° SSE 20:32:51 80° ENE 20:38:19 10° NNW visible
23 Apr 7.6 22:11:45 10° WSW 22:14:04 13° W 22:16:24 10° WNW visible
24 Apr 5.2 20:17:01 21° SSE 20:20:37 62° ENE 20:26:00 10° N visible
24 Apr 7.4 21:58:59 12° SW 22:01:39 17° W 22:05:06 10° NW visible
25 Apr 5.5 20:04:31 18° SE 20:08:24 49° ENE 20:13:37 10° N visible
25 Apr 7.1 21:46:29 15° SW 21:49:15 22° W 21:53:24 10° NW visible
